sat.trackr.live / text

‹ back to catalog

STARLINK-36187

NORAD 68613 · 2026-073M

PAYLOAD ACTIVE UNKNOWN

§ Identity

Operator
Country
US
Launch date
2026-04-07
Launch site
AFWTR
Launch vehicle
Mass (kg)
RCS (m²)

Purposes: comms

External: N2YO · Heavens-Above · Gunter

§ Orbital elements

Epoch: 2026-05-25T04:00:03.998880Z

Period
92.95 min
Inclination
97.2852°
Eccentricity
0.0001573
Mean motion
15.49143870 rev/d
Perigee alt
418.2 km
Apogee alt
420.3 km
Semi-major
6,797.4 km
B*
-1.5196e-5
RAAN
344.6133°
Arg perigee
96.7081°
Mean anomaly
102.0860°
Rev number
601

§ Raw data

STARLINK-361871 68613U 26073M   26145.16671295 -.00000916  00000+0 -15196-4 0  99902 68613  97.2852 344.6133 0001573  96.7081 102.0860 15.49143870  6016

JSON: /api/v1/satellites/68613 · /tle

For live sub-satellite position, see the globe view (requires WebGL).

§ Visibility from observer

Set your observer location to see the next 7 days of passes ≥ 10°. The values pass through the URL so the page stays shareable.

No JS? Fill the form by hand. The geolocation button needs JavaScript.